Regional Weather Roundup
Issued by NWS Memphis, TN

Home | Current Version | Previous Version | Text Only | Print | Product List | Glossary On
Versions: 1 2 3 4 5 6 7 8 9 10 11 12 13 14 15 16 17 18 19 20 21 22 23 24 25 26 27 28 29 30 31 32 33 34 35 36 37 38 39 40 41 42 43 44 45 46 47 48 49 50
000
ASUS44 KMEG 171210
RWRMEG
MEMPHIS CWA HOURLY WEATHER ROUNDUP
NATIONAL WEATHER SERVICE MEMPHIS TN
600 AM CST TUE JAN 17 2017

...WEST TENNESSEE...

CITY           SKY/WX    TMP DP  RH WIND       PRES   REMARKS
MEMPHIS INTL   LGT RAIN  53  50  89 W10       30.05R
6HR MIN TEMP:  53; 6HR MAX TEMP:  69; 6HR PCP:  0.73;

NWS MEMPHIS      N/A     53 N/A N/A MISG        N/A
JACKSON        CLOUDY    60  32  34 W10       30.03R
6HR MIN TEMP:  60; 6HR MAX TEMP:  68; 6HR PCP:  0.47;

BOLIVAR        CLOUDY    59  57  94 SW12G18   30.04R
DYERSBURG      CLOUDY    54  48  82 NW9       30.03R
6HR MIN TEMP:  54; 6HR MAX TEMP:  63;

UNION CITY     CLOUDY    55  55 100 W12       30.00R
PARIS          CLOUDY    57  55  94 W9        29.99R
HUNTINGDON     MOCLDY    61  59  94 W10G16    29.99R FOG


...EASTERN ARKANSAS...

CITY           SKY/WX    TMP DP  RH WIND       PRES   REMARKS
JONESBORO      CLOUDY    49  41  74 NW5       30.03R
6HR MIN TEMP:  49; 6HR MAX TEMP:  62;

WEST MEMPHIS   CLOUDY    52  50  93 CALM      30.05R
6HR MIN TEMP:  52; 6HR MAX TEMP:  64; 6HR PCP:  0.47;

BATESVILLE     MOCLDY    46  41  81 W5        30.04F
6HR MIN TEMP:  45; 6HR MAX TEMP:  57;

NEWPORT        CLOUDY    48  45  89 MISG        N/A
6HR MIN TEMP:  48; 6HR MAX TEMP:  62;

WALNUT RIDGE   CLOUDY    45  37  76 W8        30.04S
6HR MIN TEMP:  45; 6HR MAX TEMP:  57;

BLYTHEVILLE    CLOUDY    52  45  77 W14       30.04R
6HR MIN TEMP:  52; 6HR MAX TEMP:  64; 6HR PCP:  0.34;

SEARCY         CLOUDY    48  41  76 CALM      30.07S
6HR MIN TEMP:  48; 6HR MAX TEMP:  57; 6HR PCP: TRACE;

STUTTGART      CLOUDY    52  43  71 NW9       30.07S
6HR MIN TEMP:  52; 6HR MAX TEMP:  57; 6HR PCP:  0.11;

PINE BLUFF     CLOUDY    53  48  83 W5        30.07F
6HR MIN TEMP:  53; 6HR MAX TEMP:  57; 6HR PCP:  0.21;

MONTICELLO     CLOUDY    56  52  86 W5        30.08R
6HR MIN TEMP:  56; 6HR MAX TEMP:  62; 6HR PCP:  0.05;



...NORTH MISSISSIPPI...

CITY           SKY/WX    TMP DP  RH WIND       PRES   REMARKS
TUPELO         CLOUDY    64  60  87 S14       30.05R
6HR MIN TEMP:  63; 6HR MAX TEMP:  67;

OXFORD         RAIN      55  54  94 W5        30.10R
BATESVILLE     DRIZZLE   57  55  94 W5        30.09R
6HR MIN TEMP:  57; 6HR MAX TEMP:  68;

TUNICA         CLOUDY    54  54 100 W3        30.07S
CLARKSDALE     CLOUDY    55  55 100 W6        30.08S
CORINTH        DRIZZLE   66  61  82 SW13      30.02R
GREENWOOD      HVY RAIN  58  56  93 N6        30.09R FOG
6HR MIN TEMP:  59; 6HR MAX TEMP:  69; 6HR PCP:  0.08;

COLUMBUS       CLOUDY    70  61  73 SE9       30.09F
STARKVILLE     MOCLDY    63  61  94 S5        30.10S
GOLDEN TRIANGL CLOUDY    63  57  82 S8        30.06S


...SOUTHEAST MISSOURI...

CITY           SKY/WX    TMP DP  RH WIND       PRES   REMARKS
KENNETT        CLOUDY    50  45  81 W14       30.03R
WEST PLAINS    CLOUDY    40  37  89 W7        30.02R
6HR MIN TEMP:  38; 6HR MAX TEMP:  46;

POPLAR BLUFF   CLEAR     45  38  76 W7        30.02R
6HR MIN TEMP:  44; 6HR MAX TEMP:  60;

CAPE GIRARDEAU PTCLDY    46  42  86 W9        29.98R
6HR MIN TEMP:  46; 6HR MAX TEMP:  61;



...NORTHWEST ALABAMA...

CITY           SKY/WX    TMP DP  RH WIND       PRES   REMARKS
MUSCLE SHOALS  MOCLDY    66  59  78 S12       30.07S
6HR MIN TEMP:  65; 6HR MAX TEMP:  67; 6HR PCP: TRACE;



...MIDDLE TENNESSEE...

CITY           SKY/WX    TMP DP  RH WIND       PRES   REMARKS
NASHVILLE      CLOUDY    65  59  81 SW12G17   30.02R
6HR MIN TEMP:  64; 6HR MAX TEMP:  66; 6HR PCP:  0.04;

CLARKSVILLE    CLOUDY    64  60  87 SW13      29.96R
6HR MIN TEMP:  59; 6HR MAX TEMP:  64; 6HR PCP:  0.52;

COLUMBIA       MOCLDY   N/A N/A N/A S13       30.01S


...WESTERN KENTUCKY...

CITY           SKY/WX    TMP DP  RH WIND       PRES   REMARKS
PADUCAH        PTCLDY    55  48  77 W12       29.96R
6HR MIN TEMP:  55; 6HR MAX TEMP:  63;

FORT CAMPBELL  CLOUDY    63  63 100 SW13      29.96R
6HR MIN TEMP:  59; 6HR MAX TEMP:  63; 6HR PCP:  0.56;



...CENTRAL ARKANSAS...

CITY           SKY/WX    TMP DP  RH WIND       PRES   REMARKS
LITTLE ROCK    CLOUDY    48  45  89 NW5       30.07F
6HR MIN TEMP:  48; 6HR MAX TEMP:  57; 6HR PCP: TRACE;



SKY/WX REPORTED AS FAIR MEANS FEW OR NO CLOUDS BELOW
12 THOUSAND FEET.





USA.gov is the U.S. government's official web portal to all federal, state and local government web resources and services.